Location: Unspecified
(0.0000°N, 0.0000°E)
Time: 05:03:01

CUBESAT XI-V - Pass Details

Date: 09 December 2017
Orbit: 670 x 693 km, 97.9° (Epoch: 24 March)

Event Time Altitude Azimuth Distance (km) Brightness Sun altitude
Rises 04:54:13 0° 204° (SSW) 3,015 ? -13.4°
Reaches altitude 10° 04:57:40 10° 231° (SW) 2,101 ? -12.6°
Maximum altitude 04:59:42 13° 258° (WSW) 1,915 ? -12.1°
Enters shadow 05:00:08 13° 264° (W) 1,924 ? -12.0°
